Probability
0 1 2 2 1 0 0 0 0 0 0 1 3 3 3 3 3 1 0 0 0 0 0 0 0 0 0 0 0 0 1 2 2 1 1 2 2 2 1 3 3 1 0
1 2 3 2 0 0 0 0 0 0 0 1 2 2 1 2 2 1 0 0 0 0 0 0 0 0 0 0 0 0 0 1 2 2 2 2 1 1 1 3 3 2 1
2 3 3 2 1 0 1 1 1 0 0 0 1 1 0 0 0 0 0 0 0 0 0 0 0 0 0 1 1 1 0 0 1 2 2 1 1 1 1 2 3 3 3
1 2 4 3 1 0 1 2 2 1 0 0 1 0 0 0 0 0 0 0 0 0 0 0 0 0 0 1 2 1 1 0 0 1 1 0 0 1 1 1 2 3 4
0 2 4 5 3 2 3 3 2 1 0 0 0 0 0 0 0 0 1 1 0 0 0 0 0 0 0 1 1 1 1 0 0 0 0 0 1 2 2 1 1 2 3
0 1 4 6 6 5 5 4 2 0 0 0 0 0 0 0 0 1 1 2 1 1 1 1 1 0 0 1 1 1 1 1 0 0 0 1 3 5 4 2 1 1 1
0 1 4 6 7 7 7 5 3 1 0 0 0 0 0 0 1 1 2 3 4 3 3 2 2 1 1 2 2 2 1 1 0 0 1 1 4 6 5 3 2 1 0
1 2 4 7 8 9 8 7 4 1 1 0 0 0 1 1 1 3 4 6 7 6 5 4 3 3 3 3 3 4 3 2 1 1 1 2 4 6 6 4 4 3 1
0 1 3 5 7 8 9 8 5 3 2 1 0 0 2 2 3 5 7 9 9 8 7 5 4 3 3 4 4 5 6 4 2 1 1 3 5 8 9 8 6 4 2
0 1 2 3 4 4 6 8 6 4 4 2 1 1 3 4 5 5 7 8 9 8 8 6 5 5 6 7 7 8 7 5 2 0 2 5 8 11 13 12 9 5 4
0 0 2 3 3 2 3 5 6 5 5 4 2 3 4 5 4 3 4 6 7 8 8 9 9 9 10 11 11 10 8 4 1 1 3 8 12 14 15 14 10 6 6
0 1 3 5 5 3 3 4 6 7 7 7 6 6 6 5 4 3 4 6 8 8 9 12 12 12 12 12 13 12 9 6 3 2 5 10 14 15 15 14 10 7 6
1 2 4 6 6 5 4 5 7 9 10 11 10 9 7 6 5 6 7 9 9 8 9 12 13 12 11 11 11 10 8 7 5 5 7 12 15 16 16 16 12 9 7
2 3 5 7 7 7 7 6 7 8 10 11 11 11 9 8 7 9 12 11 8 7 9 10 11 11 11 10 9 8 6 6 6 6 10 14 16 17 16 15 12 9 9
4 4 6 7 9 9 9 8 6 6 7 9 10 10 10 10 9 11 14 12 8 7 8 9 10 11 12 11 9 7 5 5 6 9 12 17 19 18 15 12 9 8 8
5 5 5 8 11 12 11 9 7 6 9 9 9 10 10 10 10 11 13 12 9 10 11 11 10 9 10 11 9 8 7 6 8 13 16 19 20 19 15 11 8 7 7
4 5 5 7 11 15 14 12 9 7 9 10 9 10 10 9 10 11 11 10 11 13 15 14 11 9 8 9 9 8 9 10 13 17 19 19 18 16 13 11 10 8 7
3 5 5 5 10 16 18 16 12 8 8 10 11 9 8 8 10 11 11 10 12 14 13 13 12 10 8 7 8 9 11 14 16 18 20 21 19 17 14 13 13 12 11
5 7 7 6 10 17 20 19 16 13 13 14 14 11 7 7 9 11 12 13 13 12 11 12 13 12 10 8 9 11 13 17 19 19 21 23 24 22 18 15 16 17 16
12 14 14 12 14 19 20 19 18 17 17 17 15 12 8 7 8 9 10 12 13 11 11 13 15 14 12 11 12 13 16 18 20 21 23 23 24 24 20 16 17 18 18
21 24 24 21 21 23 21 19 19 18 16 15 15 12 9 8 8 8 8 9 11 12 13 15 16 15 13 13 14 15 16 17 18 21 23 22 20 21 20 18 18 18 17
28 29 29 28 27 25 22 19 18 17 15 14 14 12 10 9 8 8 8 8 10 12 14 16 16 14 13 13 14 15 15 14 14 16 19 18 17 18 19 19 20 19 18
27 29 31 33 32 28 22 17 15 16 16 15 15 14 12 9 8 9 10 9 10 12 13 14 15 13 12 12 12 14 14 13 11 11 13 14 16 17 17 17 18 20 21
25 29 35 39 39 32 24 18 16 16 16 15 14 15 13 11 10 11 13 13 13 13 13 13 14 14 13 11 11 12 14 14 13 12 11 12 14 15 15 14 15 19 22
24 29 39 46 45 38 30 25 23 21 19 15 13 14 15 14 13 14 16 17 17 16 15 15 16 16 16 13 11 12 15 16 16 14 11 10 11 12 11 12 16 20 22
23 29 41 50 49 41 35 32 28 26 22 16 12 13 15 16 16 16 17 18 19 18 18 17 16 17 18 16 13 13 16 17 16 13 11 8 8 9 9 11 17 21 22
Wind_Speed
9 10 10 10 10 10 9 9 9 10 10 10 10 10 10 10 10 9 9 9 9 10 10 10 9 9 9 9 10 10 9 8 8 8 8 8 8 7 7 7 7 6 9
11 11 11 10 10 10 9 9 9 9 9 9 9 9 10 10 10 9 9 9 9 9 9 8 9 8 8 8 9 9 8 8 8 9 9 8 8 7 6 6 6 6 8
12 11 10 10 10 10 9 9 9 8 8 9 9 9 9 9 9 9 8 8 8 8 7 8 8 8 8 8 8 8 7 7 8 9 9 6 7 8 7 7 8 8 8
11 11 10 11 10 10 10 9 9 8 8 8 8 9 9 8 8 8 8 7 7 7 6 6 7 8 8 8 8 8 7 7 7 8 5 4 6 9 8 8 7 7 7
11 11 11 11 10 10 10 9 8 8 8 8 8 8 8 8 7 8 7 6 5 5 5 6 7 7 7 8 8 8 7 7 7 6 3 3 4 9 9 8 7 7 7
11 11 12 12 11 10 9 8 8 7 7 7 7 7 7 7 7 7 6 6 5 4 4 5 5 6 7 8 8 7 7 7 6 4 3 4 4 7 9 8 8 7 7
10 11 11 11 10 9 9 8 7 7 7 7 7 7 7 7 6 6 6 5 5 4 4 4 5 6 6 7 7 7 7 6 5 3 4 3 5 8 9 9 9 8 7
9 11 10 10 10 9 8 7 7 7 7 7 7 7 7 6 6 6 5 5 5 5 5 5 6 6 6 7 7 7 7 6 5 5 4 4 7 9 9 9 9 8 8
8 9 9 9 8 9 9 8 7 7 6 6 6 6 6 6 5 5 4 5 5 5 5 6 6 6 6 7 7 8 8 8 5 3 4 4 8 9 9 9 9 9 9
7 6 7 7 7 7 8 8 8 7 6 6 5 5 6 6 5 5 5 5 4 5 6 7 7 7 7 7 8 9 9 8 5 3 3 5 9 9 9 9 9 9 9
6 6 5 5 5 6 7 9 9 8 7 6 5 6 5 4 4 4 4 5 5 6 7 8 8 8 8 8 9 10 8 4 4 2 3 7 9 9 9 9 9 9 9
4 5 4 4 3 3 4 6 4 5 5 4 3 3 3 2 2 3 5 5 5 6 7 7 8 7 7 5 7 8 4 5 3 3 4 9 9 9 9 8 8 8 8
3 3 4 4 2 3 2 3 2 2 3 4 3 3 2 1 1 2 2 3 4 5 4 5 6 4 5 4 3 4 5 3 2 2 5 10 10 9 9 9 9 9 8
3 3 5 5 3 2 2 1 2 2 2 2 2 2 2 1 1 1 1 2 2 2 2 2 2 3 4 4 4 3 3 3 3 3 5 10 10 10 9 9 9 9 8
4 5 5 5 4 2 1 0 2 2 2 2 2 1 1 1 1 1 0 1 1 1 2 2 2 2 2 2 3 3 3 3 3 4 4 10 11 10 10 10 9 9 10
5 5 5 5 5 3 2 1 1 2 2 2 2 2 1 1 1 1 1 0 0 0 1 1 2 2 1 1 1 1 2 2 2 3 4 7 11 11 11 11 10 10 10
5 5 4 4 5 3 2 1 1 1 2 2 2 2 1 1 1 0 1 1 0 1 1 1 0 1 1 1 2 2 2 2 3 3 4 4 6 10 11 11 11 10 10
5 5 3 3 5 4 2 1 0 1 2 2 2 2 2 1 1 1 1 1 0 0 0 1 0 0 0 1 1 2 2 3 4 4 4 4 4 5 9 12 12 11 11
5 5 3 3 4 4 3 2 1 1 2 2 2 2 1 1 1 1 1 0 0 0 0 0 1 0 1 1 2 2 2 2 3 4 4 5 5 5 5 9 13 12 12
6 5 4 3 3 3 2 1 1 1 1 1 2 2 1 1 1 1 1 1 1 1 0 0 0 0 0 1 2 1 2 2 2 3 4 4 4 5 6 6 7 9 12
6 5 4 3 3 2 1 1 1 1 1 1 2 2 2 1 1 0 1 1 1 1 1 0 0 0 1 1 1 1 1 2 3 3 3 3 4 4 4 5 5 5 6
6 6 5 4 3 3 2 1 1 1 1 2 2 3 2 1 0 0 1 0 0 1 1 0 0 1 1 0 1 1 1 1 1 2 2 3 3 3 4 6 5 4 4
8 7 5 5 4 3 2 2 1 1 0 1 2 2 2 1 0 1 1 1 0 0 1 1 1 1 1 1 1 1 1 1 2 1 2 2 2 2 2 2 4 4 4
9 8 6 6 5 4 3 2 2 2 1 1 1 1 2 1 1 1 1 1 1 1 1 1 0 1 1 1 1 0 1 0 1 1 2 1 2 2 3 3 3 3 4
9 9 8 6 5 4 3 2 2 1 1 1 1 1 1 2 1 1 1 1 1 0 1 1 1 1 1 1 1 1 2 1 1 1 2 2 2 2 2 3 2 3 3
9 8 9 7 5 5 4 3 2 1 1 1 1 1 1 2 1 1 1 1 0 0 1 1 1 1 1 2 2 2 1 1 1 1 2 2 3 2 2 2 2 3 3
Wind_Direction
100 100 96 92 93 94 95 96 98 100 103 104 103 103 105 107 108 109 111 116 118 121 125 128 132 135 136 138 137 135 134 134 137 134 131 132 132 127 121 126 124 114 116
105 103 97 94 96 98 99 102 105 107 110 110 111 109 108 109 115 116 115 118 120 123 128 131 135 138 137 138 139 141 144 149 154 151 149 147 145 140 133 124 115 117 123
106 109 103 96 97 98 99 102 107 108 111 113 115 114 112 113 117 118 119 120 122 125 130 137 141 141 141 144 147 148 155 167 169 170 170 165 153 152 145 131 123 126 129
105 107 103 103 101 101 100 99 100 104 108 111 113 115 116 120 124 125 124 122 124 129 135 141 145 147 150 152 152 154 163 176 180 184 186 173 158 155 150 142 138 137 136
103 101 105 109 105 103 101 100 99 102 108 115 117 118 120 122 125 127 127 126 128 133 140 144 149 154 154 156 161 168 178 189 191 192 177 156 141 153 157 155 152 153 151
104 103 109 113 111 107 105 104 101 100 106 116 122 124 125 126 124 129 136 138 135 141 149 151 154 156 159 166 173 181 190 198 204 198 179 162 144 161 164 166 163 165 165
104 108 115 118 117 114 113 111 107 102 105 113 120 129 131 135 137 142 147 150 150 154 156 154 154 160 165 173 180 188 196 206 214 189 177 157 153 172 175 172 170 174 176
106 111 120 124 124 125 124 121 115 113 113 116 121 131 137 143 149 153 156 158 161 160 160 160 163 170 172 179 188 195 205 223 209 192 168 153 159 171 173 174 178 181 184
104 115 130 139 138 137 133 129 128 125 125 126 129 138 148 155 160 168 173 172 172 176 175 174 175 182 187 191 199 205 213 223 236 215 170 144 156 171 178 180 185 187 189
109 110 121 133 146 151 148 149 148 146 145 146 150 157 165 172 175 184 188 180 178 183 186 187 190 191 196 202 209 218 222 227 228 196 147 152 160 174 181 184 188 190 192
107 114 119 132 154 156 148 152 161 163 169 169 173 181 190 200 183 182 169 162 178 184 189 193 195 199 203 210 217 219 223 224 206 160 146 162 170 177 183 184 188 190 193
112 121 123 126 133 126 131 141 161 163 162 180 166 173 192 206 175 159 153 177 185 188 191 197 199 204 213 211 211 214 220 215 196 164 160 167 173 180 186 187 191 193 196
126 120 121 115 101 100 107 135 148 150 151 166 166 165 177 184 162 158 168 178 190 191 195 188 203 212 206 199 192 193 204 211 164 157 157 166 176 183 188 190 193 194 197
120 114 118 109 102 84 82 118 142 137 138 147 151 169 162 168 170 157 171 179 181 179 181 179 194 199 203 197 194 190 197 195 169 158 165 174 180 185 187 189 193 197 202
115 110 103 109 102 93 87 23 120 121 126 129 134 148 149 166 143 129 147 178 184 170 174 181 186 185 207 207 199 195 202 198 178 167 165 179 179 182 187 192 197 200 207
119 108 110 111 109 112 118 113 114 126 131 121 112 101 117 103 102 145 153 169 156 155 183 189 184 179 197 194 187 196 206 208 201 173 165 182 185 183 190 196 201 205 209
115 109 110 120 115 118 120 146 131 132 116 113 108 107 110 105 127 141 127 134 136 222 194 176 197 194 177 192 203 212 209 203 202 186 177 178 185 194 197 200 203 207 210
114 107 103 110 109 113 109 107 59 96 105 108 114 112 108 124 144 143 105 107 127 192 141 162 175 312 219 227 224 224 208 201 206 202 198 195 193 197 203 205 205 208 211
114 110 108 85 99 109 123 140 116 85 81 95 106 106 120 124 123 128 120 129 137 95 68 270 86 201 211 233 239 222 216 211 212 215 208 200 198 191 189 200 205 209 213
127 124 121 114 108 113 120 130 132 113 115 112 107 103 109 97 82 114 144 166 186 139 126 59 329 295 234 247 270 265 236 211 214 211 219 209 197 197 194 194 200 210 214
137 136 137 133 127 131 141 147 154 164 159 142 133 130 123 104 98 56 53 161 197 143 113 130 165 266 256 266 283 292 264 231 215 205 216 213 198 196 193 193 206 204 203
147 147 144 145 151 152 145 165 182 176 164 132 104 116 118 118 165 188 104 281 78 126 124 170 198 256 286 282 285 305 315 315 296 242 209 211 203 195 202 205 200 200 202
159 161 164 154 153 159 171 164 154 145 159 109 113 123 127 133 111 34 40 355 25 131 153 193 221 241 264 286 292 306 306 325 317 268 248 222 202 206 217 210 201 206 212
167 165 157 155 158 161 178 177 183 157 136 131 127 132 147 133 93 78 76 43 25 20 31 257 156 278 249 282 302 293 251 237 269 308 295 273 237 226 223 227 215 196 206
170 164 158 154 157 160 174 174 178 166 153 128 119 142 164 136 105 79 96 74 41 27 357 342 10 343 330 316 317 315 322 291 255 258 290 307 291 257 241 229 206 198 199
168 164 158 151 158 163 170 170 160 156 141 121 142 167 191 138 114 90 106 92 84 55 331 320 318 321 315 321 319 308 302 294 293 272 276 282 273 265 241 231 220 201 198